EW6754 Weather Reports


Display with metric or nautical units.
time (UTC)temp
F
wind
direction
speed
MPH
gust
MPH
rain 1hr
in
rain 24hr
in
rain mn
in
humidity
%
barometer
mb
20260504231543 82 92 0.0 0.0 0.00 0.00 0.00 77 1014.2
20260504230043 82 115 0.0 0.0 0.00 0.00 0.00 76 1014.0
20260504224542 82 214 0.0 0.0 0.00 0.00 0.00 75 1013.9
20260504223057 83 141 0.0 0.0 0.00 0.00 0.00 75 1013.6
20260504221542 83 122 0.0 0.0 0.00 0.00 0.00 75 1013.4
20260504220039 84 106 0.0 0.0 0.00 0.00 0.00 74 1013.2
20260504214539 85 186 1.0 7.0 0.00 0.00 0.00 71 1013.0
20260504213040 86 167 0.0 0.0 0.00 0.00 0.00 69 1012.8
20260504211603 87 127 0.0 0.0 0.00 0.00 0.00 68 1012.9
20260504210044 86 153 0.0 10.0 0.00 0.00 0.00 68 1012.9
20260504204538 86 133 0.0 9.0 0.00 0.00 0.00 69 1012.6
20260504203036 86 164 0.0 10.0 0.00 0.00 0.00 69 1012.6
20260504201536 87 99 0.0 11.0 0.00 0.00 0.00 67 1012.6
20260504200033 88 148 4.0 11.0 0.00 0.00 0.00 63 1012.7
20260504194529 88 103 0.0 10.0 0.00 0.00 0.00 67 1012.8
20260504193026 89 154 0.0 10.0 0.00 0.00 0.00 66 1013.0
20260504191525 88 156 0.0 6.0 0.00 0.00 0.00 66 1012.9
20260504190017 87 97 0.0 0.0 0.00 0.00 0.00 70 1013.1
20260504184513 88 83 0.0 8.0 0.00 0.00 0.00 67 1013.3
20260504183012 88 114 0.0 7.0 0.00 0.00 0.00 68 1013.4
20260504181510 88 86 0.0 0.0 0.00 0.00 0.00 65 1013.4
20260504180010 88 141 3.0 12.0 0.00 0.00 0.00 63 1013.5
20260504174507 90 85 0.0 3.0 0.00 0.00 0.00 60 1013.7
20260504173006 89 114 0.0 10.0 0.00 0.00 0.00 60 1013.9
20260504171505 89 183 1.0 13.0 0.00 0.00 0.00 60 1014.1
20260504081512 77 175 0.0 0.0 0.00 0.00 0.00 76 1014.0
20260504044542 78 138 0.0 0.0 0.00 0.00 0.00 81 1015.4
20260504043043 78 138 0.0 0.0 0.00 0.00 0.00 81 1015.5
20260504041538 78 110 0.0 0.0 0.00 0.00 0.00 81 1015.7
20260504040038 78 117 0.0 0.0 0.00 0.00 0.00 81 1015.9
20260504034535 79 84 0.0 0.0 0.00 0.00 0.00 81 1016.1
20260504033033 78 84 0.0 0.0 0.00 0.00 0.00 81 1016.1
20260504031535 78 65 0.0 0.0 0.00 0.00 0.00 81 1016.0
20260504030031 78 81 0.0 0.0 0.00 0.00 0.00 81 1015.9
20260504024531 78 119 0.0 0.0 0.00 0.00 0.00 81 1015.8
20260504023031 79 131 0.0 0.0 0.00 0.00 0.00 81 1015.8
20260504021530 79 131 0.0 0.0 0.00 0.00 0.00 81 1015.7
20260504020031 79 97 0.0 0.0 0.00 0.00 0.00 81 1015.6
20260504014534 79 105 0.0 0.0 0.00 0.00 0.00 81 1015.4
20260504013030 79 120 0.0 0.0 0.00 0.00 0.00 81 1015.4
20260504011529 79 119 0.0 0.0 0.00 0.00 0.00 81 1015.4
20260504010027 79 106 0.0 0.0 0.00 0.00 0.00 81 1015.3
20260504004527 80 166 0.0 0.0 0.00 0.00 0.00 81 1015.1
20260504003031 79 199 0.0 0.0 0.00 0.00 0.00 81 1015.0
20260504001528 80 133 0.0 0.0 0.00 0.00 0.00 81 1014.8
20260504000025 80 204 0.0 0.0 0.00 0.00 0.00 80 1014.7
20260503234526 80 158 0.0 0.0 0.00 0.00 0.00 79 1014.4
20260503233124 81 134 0.0 0.0 0.00 0.00 0.00 78 1014.2